WXM80 ListenWXM80 Stop

You find our weather info also at:

UK Metoffice

WeatherCloud

Weather Underground

Northeastern Weather Network

AWEKAS

Citizen Weather Observer Program (CWOP)

HAMweather, WeatherForYou, PWS Weather


Weather Underground History page Text

Daily Summary for September 23, 2016 Units:  English    Metric   Both
« Previous Day
Next Day »
Daily Weekly Monthly Yearly Custom
  High: Low: Average:
Temperature: 87.3 °F 58.4 °F 71.2 °F
Dew Point: 67.6 °F 56.1 °F 61.9 °F
Humidity: 98 % 39 % 76 %
Wind Speed: 8.9 mph 0.0 mph 0.9 mph
Wind Gust: 12.7 mph - -
Wind:- - SW
Pressure: 30.05 in 29.88 in -
Precipitation: 0.00 in    
Historical Graphs
 
 
Tabular Data for September 23, 2016
Time Temperature Dew Point Pressure Wind Wind Speed Wind Gust Humidity Rainfall Rate (Hourly)
00:00 62.7 °F 56.4 °F 30.05 in Calm     80 % 0.00 in
00:05 62.6 °F 56.3 °F 30.05 in Calm     80 % 0.00 in
00:10 62.5 °F 56.6 °F 30.05 in Calm     81 % 0.00 in
00:15 62.4 °F 56.5 °F 30.05 in Calm     81 % 0.00 in
00:21 62.3 °F 56.4 °F 30.05 in Calm     81 % 0.00 in
00:26 62.1 °F 56.5 °F 30.05 in Calm     82 % 0.00 in
00:31 62.1 °F 56.5 °F 30.04 in Calm     82 % 0.00 in
00:36 62.0 °F 56.8 °F 30.05 in Calm     83 % 0.00 in
00:41 61.8 °F 56.6 °F 30.04 in Calm     83 % 0.00 in
00:46 61.7 °F 56.5 °F 30.04 in Calm     83 % 0.00 in
00:51 61.6 °F 56.4 °F 30.04 in Calm     83 % 0.00 in
00:56 61.4 °F 56.2 °F 30.04 in Calm     83 % 0.00 in
01:01 61.3 °F 56.4 °F 30.04 in Calm     84 % 0.00 in
01:06 61.2 °F 56.3 °F 30.04 in Calm     84 % 0.00 in
01:16 60.9 °F 56.4 °F 30.04 in Calm     85 % 0.00 in
01:21 60.7 °F 56.2 °F 30.03 in Calm   1.2 mph 85 % 0.00 in
01:26 60.6 °F 56.7 °F 30.04 in Calm   1.0 mph 87 % 0.00 in
01:31 60.4 °F 56.5 °F 30.03 in Calm     87 % 0.00 in
01:36 60.3 °F 56.1 °F 30.03 in Calm     86 % 0.00 in
01:41 60.2 °F 56.3 °F 30.03 in Calm     87 % 0.00 in
01:47 60.1 °F 56.2 °F 30.03 in Calm     87 % 0.00 in
01:52 59.9 °F 56.3 °F 30.03 in Calm     88 % 0.00 in
01:57 59.8 °F 56.2 °F 30.03 in SE 0.1 mph 1.2 mph 88 % 0.00 in
02:07 59.7 °F 56.8 °F 30.02 in Calm     90 % 0.00 in
02:12 59.6 °F 56.4 °F 30.03 in Calm     89 % 0.00 in
02:17 59.5 °F 56.3 °F 30.02 in Calm     89 % 0.00 in
02:22 59.4 °F 56.5 °F 30.02 in SE 0.2 mph 1.2 mph 90 % 0.00 in
02:27 59.4 °F 56.5 °F 30.02 in SE 0.3 mph 1.2 mph 90 % 0.00 in
02:32 59.4 °F 56.8 °F 30.02 in Calm     91 % 0.00 in
02:38 59.4 °F 57.1 °F 30.02 in Calm     92 % 0.00 in
02:43 59.3 °F 57.0 °F 30.02 in Calm     92 % 0.00 in
02:48 59.3 °F 57.0 °F 30.02 in Calm     92 % 0.00 in
02:53 59.3 °F 57.0 °F 30.02 in SE 0.1 mph 1.2 mph 92 % 0.00 in
02:58 59.2 °F 56.9 °F 30.02 in Calm     92 % 0.00 in
03:03 59.2 °F 56.9 °F 30.02 in Calm     92 % 0.00 in
03:08 59.1 °F 56.8 °F 30.01 in Calm     92 % 0.00 in
03:13 59.1 °F 56.8 °F 30.02 in Calm     92 % 0.00 in
03:18 59.0 °F 56.7 °F 30.01 in SE 0.6 mph 1.2 mph 92 % 0.00 in
03:23 59.0 °F 56.7 °F 30.01 in Calm     92 % 0.00 in
03:28 58.9 °F 56.6 °F 30.01 in Calm     92 % 0.00 in
03:33 58.8 °F 56.8 °F 30.01 in Calm     93 % 0.00 in
03:39 58.7 °F 56.7 °F 30.01 in SE 0.2 mph 1.2 mph 93 % 0.00 in
03:44 58.7 °F 56.7 °F 30.01 in SE 0.1 mph 1.2 mph 93 % 0.00 in
03:49 58.7 °F 56.7 °F 30.01 in Calm     93 % 0.00 in
03:54 58.6 °F 56.6 °F 30.01 in Calm     93 % 0.00 in
03:59 58.6 °F 56.6 °F 30.01 in Calm     93 % 0.00 in
04:04 58.6 °F 56.6 °F 30.01 in Calm   1.2 mph 93 % 0.00 in
04:09 58.5 °F 56.5 °F 30.01 in SE 0.3 mph 1.2 mph 93 % 0.00 in
04:14 58.5 °F 56.5 °F 30.02 in Calm   1.2 mph 93 % 0.00 in
04:19 58.4 °F 56.4 °F 30.01 in SE 0.1 mph 1.2 mph 93 % 0.00 in
04:25 58.4 °F 56.7 °F 30.01 in SE 0.4 mph 1.2 mph 94 % 0.00 in
04:30 58.4 °F 56.7 °F 30.01 in Calm   1.2 mph 94 % 0.00 in
04:35 58.4 °F 56.7 °F 30.01 in SE 0.3 mph 1.2 mph 94 % 0.00 in
04:40 58.4 °F 56.7 °F 30.01 in Calm   1.2 mph 94 % 0.00 in
04:45 58.4 °F 56.7 °F 30.02 in Calm     94 % 0.00 in
04:50 58.5 °F 56.8 °F 30.02 in Calm     94 % 0.00 in
04:55 58.5 °F 56.8 °F 30.01 in Calm     94 % 0.00 in
05:00 58.5 °F 56.8 °F 30.01 in Calm   1.2 mph 94 % 0.00 in
05:05 58.5 °F 56.8 °F 30.01 in SE 0.1 mph 1.2 mph 94 % 0.00 in
05:10 58.5 °F 56.8 °F 30.01 in Calm     94 % 0.00 in
05:16 58.5 °F 57.1 °F 30.01 in Calm   1.0 mph 95 % 0.00 in
05:21 58.5 °F 57.1 °F 30.01 in Calm     95 % 0.00 in
05:25 58.5 °F 57.1 °F 30.01 in Calm     95 % 0.00 in
05:31 58.5 °F 57.1 °F 30.01 in Calm   1.0 mph 95 % 0.00 in
05:36 58.6 °F 57.2 °F 30.01 in Calm   1.0 mph 95 % 0.00 in
05:46 58.7 °F 57.3 °F 30.01 in Calm     95 % 0.00 in
05:50 58.7 °F 57.3 °F 30.01 in Calm   1.0 mph 95 % 0.00 in
05:56 58.7 °F 57.3 °F 30.02 in Calm   1.0 mph 95 % 0.00 in
06:01 58.7 °F 57.3 °F 30.02 in Calm     95 % 0.00 in
06:06 58.7 °F 57.3 °F 30.02 in Calm     95 % 0.00 in
06:11 58.7 °F 57.3 °F 30.02 in Calm     95 % 0.00 in
06:16 58.7 °F 57.3 °F 30.02 in Calm     95 % 0.00 in
06:21 58.7 °F 57.3 °F 30.02 in Calm     95 % 0.00 in
06:26 58.7 °F 57.3 °F 30.02 in Calm     95 % 0.00 in
06:31 58.7 °F 57.3 °F 30.02 in Calm     95 % 0.00 in
06:36 58.7 °F 57.3 °F 30.02 in Calm     95 % 0.00 in
06:41 58.7 °F 57.3 °F 30.01 in SE 0.1 mph 1.2 mph 95 % 0.00 in
06:46 58.7 °F 57.3 °F 30.01 in Calm     95 % 0.00 in
06:51 58.7 °F 57.6 °F 30.01 in Calm     96 % 0.00 in
06:56 58.8 °F 57.7 °F 30.02 in Calm     96 % 0.00 in
07:01 58.8 °F 57.7 °F 30.02 in Calm     96 % 0.00 in
07:06 58.9 °F 57.8 °F 30.02 in Calm     96 % 0.00 in
07:11 59.0 °F 57.9 °F 30.02 in SE 0.2 mph 1.2 mph 96 % 0.00 in
07:27 59.4 °F 58.5 °F 30.02 in Calm     97 % 0.00 in
07:32 59.6 °F 58.7 °F 30.02 in Calm     97 % 0.00 in
07:37 59.8 °F 58.9 °F 30.02 in Calm   1.2 mph 97 % 0.00 in
07:47 60.2 °F 59.3 °F 30.02 in Calm     97 % 0.00 in
07:52 60.4 °F 59.5 °F 30.02 in Calm     97 % 0.00 in
08:02 61.3 °F 60.4 °F 30.02 in Calm   1.2 mph 97 % 0.00 in
08:08 61.7 °F 61.1 °F 30.02 in Calm     98 % 0.00 in
08:13 62.4 °F 61.8 °F 30.02 in Calm   1.2 mph 98 % 0.00 in
08:18 62.9 °F 62.3 °F 30.02 in SE 0.6 mph 2.3 mph 98 % 0.00 in
08:23 63.3 °F 62.7 °F 30.02 in SE 0.5 mph 2.3 mph 98 % 0.00 in
08:28 63.6 °F 63.0 °F 30.02 in SE 0.2 mph 2.3 mph 98 % 0.00 in
08:33 63.9 °F 63.3 °F 30.02 in SE 0.2 mph 1.2 mph 98 % 0.00 in
08:38 64.2 °F 63.6 °F 30.02 in SE 0.2 mph 1.2 mph 98 % 0.00 in
08:43 64.5 °F 63.9 °F 30.01 in SW 0.4 mph 3.5 mph 98 % 0.00 in
08:48 64.8 °F 64.2 °F 30.01 in SW 1.2 mph 2.0 mph 98 % 0.00 in
08:53 64.9 °F 64.3 °F 30.02 in SW 1.2 mph 2.3 mph 98 % 0.00 in
08:59 65.0 °F 64.4 °F 30.01 in Calm   2.3 mph 98 % 0.00 in
09:04 65.2 °F 64.6 °F 30.01 in SW 2.8 mph 4.6 mph 98 % 0.00 in
09:09 65.3 °F 64.7 °F 30.01 in SW 0.6 mph 2.3 mph 98 % 0.00 in
09:14 65.3 °F 64.7 °F 30.01 in SW 1.0 mph 3.5 mph 98 % 0.00 in
09:19 65.4 °F 64.8 °F 30.01 in WSW 1.5 mph 3.5 mph 98 % 0.00 in
09:24 65.3 °F 64.7 °F 30.01 in West 2.4 mph 4.0 mph 98 % 0.00 in
09:29 65.3 °F 64.7 °F 30.01 in WSW 2.1 mph 4.0 mph 98 % 0.00 in
09:34 65.3 °F 64.7 °F 30.01 in West 0.8 mph 3.5 mph 98 % 0.00 in
09:39 65.5 °F 64.9 °F 30.00 in WSW 0.2 mph 3.5 mph 98 % 0.00 in
09:45 65.9 °F 65.0 °F 30.00 in WSW 2.4 mph 4.0 mph 97 % 0.00 in
09:50 66.3 °F 65.4 °F 30.00 in SW 2.1 mph 3.5 mph 97 % 0.00 in
09:55 66.7 °F 65.5 °F 30.00 in SW 1.0 mph 2.3 mph 96 % 0.00 in
10:00 67.1 °F 65.3 °F 30.00 in Calm   1.2 mph 94 % 0.00 in
10:05 67.5 °F 65.4 °F 30.00 in SW 0.1 mph 1.2 mph 93 % 0.00 in
10:10 68.0 °F 65.0 °F 29.99 in SW 0.5 mph 3.5 mph 90 % 0.00 in
10:15 68.5 °F 65.4 °F 30.00 in West 0.4 mph 1.2 mph 90 % 0.00 in
10:20 69.1 °F 65.4 °F 29.99 in WNW 0.9 mph 2.3 mph 88 % 0.00 in
10:25 69.8 °F 64.7 °F 29.99 in WNW 1.9 mph 3.5 mph 84 % 0.00 in
10:30 70.5 °F 65.1 °F 29.99 in SW 1.6 mph 5.0 mph 83 % 0.00 in
10:35 71.2 °F 65.4 °F 29.99 in SW 4.4 mph 4.6 mph 82 % 0.00 in
10:40 71.8 °F 65.3 °F 29.98 in West 3.1 mph 4.0 mph 80 % 0.00 in
10:45 72.3 °F 65.1 °F 29.98 in SW 1.0 mph 3.0 mph 78 % 0.00 in
10:50 72.8 °F 65.6 °F 29.98 in SW 1.0 mph 1.0 mph 78 % 0.00 in
10:55 73.3 °F 64.9 °F 29.97 in SW 1.0 mph 4.0 mph 75 % 0.00 in
11:01 73.8 °F 64.6 °F 29.98 in WNW 1.9 mph 4.6 mph 73 % 0.00 in
11:06 74.3 °F 65.9 °F 29.97 in WNW 0.7 mph 2.0 mph 75 % 0.00 in
11:11 74.9 °F 65.7 °F 29.97 in WNW 0.4 mph 4.6 mph 73 % 0.00 in
11:16 75.7 °F 66.0 °F 29.97 in WSW 1.4 mph 3.5 mph 72 % 0.00 in
11:21 76.7 °F 65.3 °F 29.97 in SW 5.0 mph 6.9 mph 68 % 0.00 in
11:26 77.8 °F 63.7 °F 29.97 in West 4.1 mph 6.9 mph 62 % 0.00 in
11:31 78.7 °F 63.2 °F 29.97 in SW 3.3 mph 4.0 mph 59 % 0.00 in
11:36 79.6 °F 64.0 °F 29.97 in SW 2.2 mph 3.5 mph 59 % 0.00 in
11:41 80.2 °F 63.6 °F 29.97 in SW 3.6 mph 4.6 mph 57 % 0.00 in
11:46 80.6 °F 62.4 °F 29.97 in WSW 2.1 mph 5.8 mph 54 % 0.00 in
11:52 80.9 °F 62.7 °F 29.97 in WNW 3.3 mph 6.0 mph 54 % 0.00 in
11:57 81.1 °F 64.4 °F 29.97 in West 0.5 mph 4.6 mph 57 % 0.00 in
12:02 81.2 °F 66.5 °F 29.97 in North 2.5 mph 4.6 mph 61 % 0.00 in
12:07 81.1 °F 66.4 °F 29.96 in NNE 1.4 mph 3.5 mph 61 % 0.00 in
12:12 80.9 °F 65.7 °F 29.96 in WNW 2.1 mph 4.6 mph 60 % 0.00 in
12:17 81.0 °F 65.8 °F 29.96 in NW 1.8 mph 3.5 mph 60 % 0.00 in
12:22 81.3 °F 67.0 °F 29.96 in NW 1.9 mph 3.0 mph 62 % 0.00 in
12:27 81.7 °F 67.4 °F 29.96 in NW 0.2 mph 3.5 mph 62 % 0.00 in
12:32 82.1 °F 64.3 °F 29.96 in WSW 3.2 mph 6.9 mph 55 % 0.00 in
12:37 82.4 °F 66.6 °F 29.96 in WNW 0.3 mph 3.5 mph 59 % 0.00 in
12:43 83.0 °F 65.2 °F 29.95 in NNE 3.4 mph 5.8 mph 55 % 0.00 in
12:48 83.4 °F 62.2 °F 29.95 in WNW 1.1 mph 3.5 mph 49 % 0.00 in
12:53 83.6 °F 63.0 °F 29.95 in WNW 5.1 mph 8.1 mph 50 % 0.00 in
12:58 83.6 °F 64.7 °F 29.95 in SW 2.7 mph 6.0 mph 53 % 0.00 in
13:03 83.6 °F 63.0 °F 29.95 in WSW 1.9 mph 3.5 mph 50 % 0.00 in
13:08 83.5 °F 61.7 °F 29.95 in West 0.1 mph 1.2 mph 48 % 0.00 in
13:13 83.4 °F 61.1 °F 29.95 in WSW 0.9 mph 3.0 mph 47 % 0.00 in
13:18 83.4 °F 61.1 °F 29.95 in NW 3.7 mph 5.8 mph 47 % 0.00 in
13:23 83.5 °F 61.1 °F 29.95 in NW 3.0 mph 5.0 mph 47 % 0.00 in
13:28 83.6 °F 60.6 °F 29.95 in WNW 4.6 mph 5.0 mph 46 % 0.00 in
13:33 83.8 °F 62.0 °F 29.95 in West 0.3 mph 6.9 mph 48 % 0.00 in
13:39 83.9 °F 62.1 °F 29.94 in North 2.6 mph 4.0 mph 48 % 0.00 in
13:44 84.1 °F 62.3 °F 29.94 in West 3.0 mph 5.8 mph 48 % 0.00 in
13:49 84.2 °F 61.2 °F 29.94 in WNW 0.5 mph 4.6 mph 46 % 0.00 in
13:54 84.3 °F 60.0 °F 29.94 in West 3.3 mph 6.9 mph 44 % 0.00 in
13:59 84.3 °F 61.3 °F 29.93 in WSW 0.8 mph 5.8 mph 46 % 0.00 in
14:04 84.4 °F 60.1 °F 29.93 in NW 2.9 mph 4.6 mph 44 % 0.00 in
14:09 84.7 °F 59.7 °F 29.93 in WNW 1.8 mph 3.5 mph 43 % 0.00 in
14:14 85.1 °F 59.4 °F 29.93 in SW 3.1 mph 7.0 mph 42 % 0.00 in
14:19 85.5 °F 59.1 °F 29.93 in WSW 4.0 mph 5.8 mph 41 % 0.00 in
14:24 86.0 °F 58.9 °F 29.92 in NW 2.3 mph 4.6 mph 40 % 0.00 in
14:29 86.2 °F 58.3 °F 29.92 in WNW 3.2 mph 5.8 mph 39 % 0.00 in
14:34 86.2 °F 58.3 °F 29.92 in WSW 3.2 mph 6.0 mph 39 % 0.00 in
14:39 86.4 °F 59.9 °F 29.91 in WNW 1.0 mph 3.5 mph 41 % 0.00 in
14:44 86.6 °F 59.4 °F 29.91 in WNW 1.5 mph 2.3 mph 40 % 0.00 in
14:49 86.8 °F 58.9 °F 29.91 in WSW 1.5 mph 4.6 mph 39 % 0.00 in
14:55 86.9 °F 59.7 °F 29.91 in West 1.3 mph 4.6 mph 40 % 0.00 in
15:00 87.0 °F 59.0 °F 29.91 in SW 3.1 mph 8.0 mph 39 % 0.00 in
15:05 87.3 °F 60.0 °F 29.90 in WSW 1.5 mph 3.5 mph 40 % 0.00 in
15:10 87.3 °F 60.0 °F 29.90 in WSW 3.4 mph 8.1 mph 40 % 0.00 in
15:15 87.1 °F 60.5 °F 29.90 in West 0.6 mph 2.3 mph 41 % 0.00 in
15:20 86.9 °F 59.7 °F 29.90 in WSW 3.2 mph 3.5 mph 40 % 0.00 in
15:25 86.7 °F 60.2 °F 29.90 in SW 3.5 mph 4.6 mph 41 % 0.00 in
15:30 86.6 °F 60.8 °F 29.90 in WNW 1.0 mph 4.6 mph 42 % 0.00 in
15:35 86.5 °F 60.7 °F 29.89 in WSW 3.7 mph 5.8 mph 42 % 0.00 in
15:40 86.5 °F 60.0 °F 29.89 in SW 3.5 mph 5.0 mph 41 % 0.00 in
15:45 86.5 °F 60.7 °F 29.90 in West 2.5 mph 8.1 mph 42 % 0.00 in
15:51 86.5 °F 61.3 °F 29.90 in West 2.0 mph 6.0 mph 43 % 0.00 in
15:56 86.5 °F 60.7 °F 29.90 in West 2.0 mph 6.0 mph 42 % 0.00 in
16:01 86.5 °F 60.7 °F 29.89 in SW 2.2 mph 6.0 mph 42 % 0.00 in
16:06 86.5 °F 60.7 °F 29.89 in SW 1.7 mph 4.6 mph 42 % 0.00 in
16:11 86.4 °F 61.3 °F 29.89 in WSW 1.2 mph 3.5 mph 43 % 0.00 in
16:21 86.7 °F 61.5 °F 29.89 in WSW 0.1 mph 2.3 mph 43 % 0.00 in
16:26 86.6 °F 62.1 °F 29.89 in WNW 1.2 mph 3.5 mph 44 % 0.00 in
16:31 86.3 °F 61.8 °F 29.90 in NNW 2.0 mph 4.6 mph 44 % 0.00 in
16:37 85.7 °F 61.3 °F 29.89 in NNE 1.9 mph 3.5 mph 44 % 0.00 in
16:42 85.2 °F 62.1 °F 29.89 in Calm   1.2 mph 46 % 0.00 in
16:47 85.3 °F 64.0 °F 29.89 in Calm     49 % 0.00 in
16:57 85.0 °F 63.1 °F 29.89 in Calm   1.2 mph 48 % 0.00 in
17:02 84.8 °F 62.9 °F 29.89 in WNW 1.2 mph 2.3 mph 48 % 0.00 in
17:07 84.7 °F 61.6 °F 29.88 in Calm     46 % 0.00 in
17:12 84.5 °F 62.7 °F 29.88 in Calm   1.2 mph 48 % 0.00 in
17:17 84.4 °F 62.0 °F 29.88 in Calm   2.3 mph 47 % 0.00 in
17:23 84.2 °F 62.4 °F 29.88 in WSW 0.1 mph 1.2 mph 48 % 0.00 in
17:28 84.1 °F 62.3 °F 29.88 in Calm     48 % 0.00 in
17:33 84.0 °F 62.2 °F 29.88 in Calm     48 % 0.00 in
17:38 83.9 °F 63.8 °F 29.88 in SE 1.7 mph 3.5 mph 51 % 0.00 in
17:43 83.8 °F 66.4 °F 29.89 in SE 1.5 mph 3.5 mph 56 % 0.00 in
17:48 83.4 °F 67.1 °F 29.89 in SSE 0.9 mph 2.3 mph 58 % 0.00 in
17:53 83.2 °F 66.9 °F 29.89 in Calm     58 % 0.00 in
17:58 83.0 °F 67.2 °F 29.89 in WSW 0.2 mph 1.2 mph 59 % 0.00 in
18:03 82.8 °F 67.5 °F 29.89 in WSW 0.1 mph 1.2 mph 60 % 0.00 in
18:08 82.4 °F 67.6 °F 29.89 in South 0.1 mph 1.2 mph 61 % 0.00 in
18:14 82.2 °F 67.4 °F 29.89 in Calm     61 % 0.00 in
18:19 81.8 °F 67.5 °F 29.90 in WSW 0.3 mph 1.2 mph 62 % 0.00 in
18:24 81.5 °F 67.2 °F 29.90 in Calm   1.2 mph 62 % 0.00 in
18:29 81.2 °F 67.4 °F 29.90 in Calm     63 % 0.00 in
18:34 80.9 °F 67.6 °F 29.90 in SW 0.2 mph 1.2 mph 64 % 0.00 in
18:39 80.5 °F 67.6 °F 29.89 in Calm     65 % 0.00 in
18:44 80.0 °F 67.2 °F 29.90 in Calm     65 % 0.00 in
18:49 79.6 °F 67.2 °F 29.90 in Calm     66 % 0.00 in
18:54 79.2 °F 67.3 °F 29.90 in Calm     67 % 0.00 in
19:05 78.3 °F 66.9 °F 29.90 in Calm     68 % 0.00 in
19:10 77.9 °F 66.9 °F 29.90 in SW 0.3 mph 2.3 mph 69 % 0.00 in
19:15 77.6 °F 66.6 °F 29.90 in Calm   1.2 mph 69 % 0.00 in
19:20 77.3 °F 66.7 °F 29.91 in Calm   1.2 mph 70 % 0.00 in
19:25 77.0 °F 66.9 °F 29.90 in Calm     71 % 0.00 in
19:30 76.7 °F 66.6 °F 29.91 in Calm     71 % 0.00 in
19:35 76.4 °F 66.7 °F 29.91 in Calm     72 % 0.00 in
19:40 76.0 °F 66.3 °F 29.91 in SW 0.2 mph 1.2 mph 72 % 0.00 in
19:45 75.6 °F 66.3 °F 29.91 in Calm     73 % 0.00 in
19:50 75.4 °F 66.1 °F 29.91 in Calm     73 % 0.00 in
19:55 75.1 °F 66.6 °F 29.91 in Calm     75 % 0.00 in
20:00 74.9 °F 66.4 °F 29.91 in Calm     75 % 0.00 in
20:06 74.6 °F 66.5 °F 29.91 in Calm     76 % 0.00 in
20:11 74.4 °F 66.3 °F 29.91 in Calm     76 % 0.00 in
20:16 74.2 °F 66.1 °F 29.91 in Calm     76 % 0.00 in
20:26 73.6 °F 66.3 °F 29.91 in Calm     78 % 0.00 in
20:31 73.3 °F 66.0 °F 29.91 in Calm     78 % 0.00 in
20:36 73.1 °F 65.8 °F 29.91 in Calm     78 % 0.00 in
20:41 73.0 °F 66.1 °F 29.92 in Calm     79 % 0.00 in
20:46 72.8 °F 65.9 °F 29.92 in Calm     79 % 0.00 in
20:51 72.6 °F 66.1 °F 29.92 in Calm     80 % 0.00 in
20:57 72.4 °F 65.9 °F 29.92 in Calm     80 % 0.00 in
21:02 72.2 °F 65.7 °F 29.92 in Calm   1.2 mph 80 % 0.00 in
21:07 72.1 °F 65.9 °F 29.92 in Calm     81 % 0.00 in
21:12 71.9 °F 65.8 °F 29.92 in Calm     81 % 0.00 in
21:17 71.7 °F 65.2 °F 29.92 in Calm     80 % 0.00 in
21:22 71.6 °F 65.5 °F 29.92 in Calm     81 % 0.00 in
21:27 71.5 °F 65.4 °F 29.92 in Calm     81 % 0.00 in
21:32 71.3 °F 65.5 °F 29.92 in Calm     82 % 0.00 in
21:37 71.2 °F 65.4 °F 29.92 in Calm     82 % 0.00 in
21:42 71.1 °F 65.7 °F 29.92 in Calm     83 % 0.00 in
21:47 71.0 °F 65.6 °F 29.92 in Calm     83 % 0.00 in
21:53 70.8 °F 65.4 °F 29.92 in SW 0.1 mph 1.2 mph 83 % 0.00 in
21:58 70.7 °F 65.3 °F 29.92 in Calm     83 % 0.00 in
22:03 70.6 °F 65.2 °F 29.92 in Calm     83 % 0.00 in
22:08 70.5 °F 65.4 °F 29.92 in Calm     84 % 0.00 in
22:13 70.4 °F 65.7 °F 29.93 in SW 0.3 mph 1.2 mph 85 % 0.00 in
22:18 70.2 °F 65.5 °F 29.93 in SW 0.1 mph 1.2 mph 85 % 0.00 in
22:23 70.2 °F 65.8 °F 29.93 in WNW 0.6 mph 1.2 mph 86 % 0.00 in
22:28 70.1 °F 66.0 °F 29.94 in Calm     87 % 0.00 in
22:33 70.1 °F 66.0 °F 29.94 in Calm     87 % 0.00 in
22:38 70.2 °F 66.5 °F 29.94 in WNW 0.2 mph 2.3 mph 88 % 0.00 in
22:44 70.2 °F 66.5 °F 29.93 in Calm     88 % 0.00 in
22:49 70.2 °F 66.5 °F 29.93 in Calm     88 % 0.00 in
22:54 70.2 °F 66.5 °F 29.94 in Calm     88 % 0.00 in
22:59 70.3 °F 66.6 °F 29.94 in Calm     88 % 0.00 in
23:04 70.3 °F 66.6 °F 29.94 in Calm   1.0 mph 88 % 0.00 in
23:09 70.4 °F 66.7 °F 29.94 in WNW 0.1 mph 1.2 mph 88 % 0.00 in
23:14 70.4 °F 66.7 °F 29.94 in Calm   1.2 mph 88 % 0.00 in
23:19 70.4 °F 66.7 °F 29.95 in NNE 1.3 mph 3.5 mph 88 % 0.00 in
23:24 70.4 °F 66.7 °F 29.95 in NNE 1.4 mph 3.5 mph 88 % 0.00 in
23:29 70.5 °F 66.4 °F 29.95 in NNW 4.2 mph 5.8 mph 87 % 0.00 in
23:35 70.8 °F 66.4 °F 29.95 in NE 5.5 mph 10.4 mph 86 % 0.00 in
23:40 71.2 °F 66.8 °F 29.95 in NNE 4.0 mph 5.8 mph 86 % 0.00 in
23:45 71.6 °F 67.5 °F 29.95 in ENE 8.3 mph 12.7 mph 87 % 0.00 in
23:50 71.9 °F 66.8 °F 29.95 in ENE 8.2 mph 11.5 mph 84 % 0.00 in
23:55 72.1 °F 66.6 °F 29.95 in East 8.9 mph 11.5 mph 83 % 0.00 in
Crab Meadow Weather
Compliments of Weather Underground - 3 mb

Script developed by  Jim McMurry - jmcmurry@mwt.net Adapted for the template by  Wim van der Kuil - Leuven-Template.eu

Astronomy: Neptune was discovered in 1846 (over 150 years ago). Since that time it has still yet to make a complete orbit around the sun, because one Neptune year lasts 165 Earth years!